Weather History for FAGG - March, 2012

Change the Weather History Date:

Sunday, March 18, 2012

  Actual Average Record
Temperature  
Mean Temperature 62 °F -  
Max Temperature 74 °F 71 °F 86 °F (2004)
Min Temperature 51 °F 55 °F 46 °F (2009)
Degree Days  
Heating Degree Days 2    
Growing Degree Days 12 (Base 50)    
Moisture  
Dew Point 49 °F    
Average Humidity 62    
Maximum Humidity 82    
Minimum Humidity 26    
Precipitation  
Precipitation 0.00 in - - ()
Sea Level Pressure  
Sea Level Pressure 30.04 in    
Wind  
Wind Speed 6 mph ()    
Max Wind Speed 10 mph    
Max Gust Speed -    
Visibility 15.2 miles    
Events      
Averages and records for this station are not official NWS values.
T = Trace of Precipitation, MM = Missing Value Source: Averaged Metar Reports

Daily Weather History Graph

Daily Weather History Graph

Search for Another Location

Airport or City:

Trip Planner

Search our weather history database for the weather conditions in past years. The results will help you decide how hot, cold, wet, or windy it might be!

Date:

Astronomy

Mar. 18, 2012 Rise Set
Actual Time 6:32 AM SAST 6:43 PM SAST
Civil Twilight 6:07 AM SAST 7:08 PM SAST
Nautical Twilight 5:38 AM SAST 7:38 PM SAST
Astronomical Twilight 5:08 AM SAST 8:07 PM SAST
Moon 2:28 AM SAST (3/18) 4:11 PM SAST (3/18)
Length of Visible Light 13h 01m
Length of Day
12h 11m
Waning Crescent, 17% of the Moon is Illuminated
Mar 18
Waning Crescent
Mar 22
New
Mar 30
First Quarter
Apr 6
Full
Apr 13
Last Quarter

Hourly Weather History & Observations

Time (SAST) Temp. Dew Point Humidity Pressure Visibility Wind Dir Wind Speed Gust Speed Precip Events Conditions
12:00 AM 55.4 °F 50.0 °F 82% 30.09 in - NW 6.9 mph - N/A   Clear
1:00 AM 57.2 °F 48.2 °F 72% 30.09 in 6.2 mi WNW 10.4 mph - N/A   Partly Cloudy
2:00 AM 56 °F 49 °F 69% 30.09 in 19 mi WNW 8.1 mph - -  
2:00 AM 55.4 °F 48.2 °F 77% 30.06 in - NW 8.1 mph - N/A   Clear
3:00 AM 55.4 °F 50.0 °F 82% 30.06 in - NW 8.1 mph - N/A   Clear
4:00 AM 55.4 °F 48.2 °F 77% 30.06 in - NW 6.9 mph - N/A   Clear
5:00 AM 53 °F 48 °F 79% 30.07 in 19 mi NW 4.6 mph - -  
5:00 AM 53.6 °F 48.2 °F 82% 30.06 in - NNW 4.6 mph - N/A   Clear
6:00 AM 53.6 °F 48.2 °F 82% 30.06 in - NNW 4.6 mph - N/A   Clear
7:00 AM 51.8 °F 44.6 °F 76% 30.06 in - NNW 4.6 mph - N/A   Clear
7:24 AM 55.4 °F 46.4 °F 72% 30.06 in - NNW 5.8 mph - N/A   Clear
7:47 AM 59.0 °F 46.4 °F 63% 30.06 in - NNW 5.8 mph - N/A   Clear
8:00 AM 59 °F 46 °F 52% 30.08 in 19 mi NNW 5.8 mph - -   Clear
8:00 AM 59.0 °F 46.4 °F 63% 30.06 in - NNW 5.8 mph - N/A   Clear
8:13 AM 62.6 °F 46.4 °F 55% 30.06 in - NW 3.5 mph - N/A   Clear
9:00 AM 64.4 °F 44.6 °F 49% 30.06 in - NW 3.5 mph - N/A   Clear
9:43 AM 68.0 °F 42.8 °F 40% 30.06 in - NNW 3.5 mph - N/A   Clear
10:00 AM 68.0 °F 41.0 °F 37% 30.06 in - WNW 3.5 mph - N/A   Clear
11:00 AM 70 °F 43 °F 26% 30.05 in 19 mi North 3.5 mph - -  
11:00 AM 69.8 °F 42.8 °F 38% 30.06 in - NNE 4.6 mph - N/A   Clear
12:00 PM 71.6 °F 46.4 °F 41% 30.04 in - Variable 8.1 mph - N/A   Clear
1:00 PM 71.6 °F 46.4 °F 41% 30.01 in - SSE 9.2 mph - N/A   Clear
2:00 PM 71.6 °F 50.0 °F 46% 30.01 in - SE 9.2 mph - N/A   Clear
3:00 PM 75.2 °F 48.2 °F 38% 29.98 in - South 6.9 mph - N/A   Clear
4:00 PM 71.6 °F 51.8 °F 50% 29.98 in - SSE 9.2 mph - N/A   Clear
5:00 PM 68 °F 52 °F 45% 29.99 in 12 mi South 4.6 mph - -   Clear
5:00 PM 68.0 °F 51.8 °F 56% 29.98 in - South 5.8 mph - N/A   Clear
6:00 PM 66.2 °F 53.6 °F 64% 29.98 in - South 4.6 mph - N/A   Clear
7:00 PM 62.6 °F 53.6 °F 72% 30.01 in - SSW 4.6 mph - N/A   Clear
8:00 PM 61 °F 54 °F 71% 30.02 in 12 mi NNW 4.6 mph - -   Clear
8:00 PM 60.8 °F 53.6 °F 77% 30.01 in - NNW 4.6 mph - N/A   Clear
9:00 PM 59.0 °F 53.6 °F 82% 30.01 in - NNW 5.8 mph - N/A   Clear
10:00 PM 59.0 °F 53.6 °F 82% 30.01 in - NNW 5.8 mph - N/A   Clear
11:00 PM 59.0 °F 53.6 °F 82% 30.01 in - NNW 5.8 mph - N/A   Clear